User: anonymous   Login
Location: Aiyekoto
(8.4333°N, 4.3667°E)
Time: 14:23:11
(UTC+00:00)
Language:

Cosmos 1346 Rocket - Orbit

View from above orbital plane
View from above orbital plane
View from above satellite
View from above satellite

Ground track
Ground track

The orbit data is extracted from the following two-line orbital elements,

1 13121U 82027B   20224.86350285 -.00000013 +00000-0 -23257-5 0  9994
2 13121 081.1711 235.4667 0008713 287.0771 072.9499 15.08959237090348
Epoch (UTC): 11 August 2020 20:43:26
Eccentricity: 0.0008713
inclination: 81.1711°
perigee height: 533 km
apogee height: 545 km
right ascension of ascending node: 235.4667°
argument of perigee: 287.0771°
revolutions per day: 15.08959237
mean anomaly at epoch: 72.9499°
orbit number at epoch: 9034

The dashed part of the orbit path shows where the satellite is in the earth's shadow,  

DLR